Location: Newark
(39.0622°N, 106.5590°E)
Time: 01:03:33
(UTC+00:00)

UWE-3 - Pass Details

Date: 24 February 2020
Orbit: 585 x 682 km, 97.6° (Epoch: 27 March)

Event Time Altitude Azimuth Distance (km) Brightness Sun altitude
Rises 20:56:16 0° 38° (NE) 3,046 ? -31.1°
Reaches altitude 10° 21:00:48 10° 79° (E) 2,127 ? -30.3°
Maximum altitude 21:01:35 10° 89° (E) 2,100 ? -30.1°
Drops below altitude 10° 21:02:22 10° 99° (E) 2,124 ? -30.0°
Sets 21:06:51 0° 140° (SE) 3,023 ? -29.1°
